{"data":{"norad_id":62726,"epoch":"2026-05-25T04:12:43.000416Z","epoch_age_seconds":53146,"freshness":"FRESH","line1":"1 62726U 25012B   26145.17549769  .00004376  00000+0  20049-3 0  9996","line2":"2 62726  97.4237 218.5704 0008829   8.0784 352.0592 15.20968628 74754","mean_motion":15.20968628,"eccentricity":0.0008829,"inclination_deg":97.4237,"raan_deg":218.5704,"arg_perigee_deg":8.0784,"mean_anomaly_deg":352.0592,"bstar":0.00020049,"rev_number":7475,"period_min":94.676509001604,"perigee_km":496.84231552703,"apogee_km":508.99288173729,"semimajor_km":6881.0545986322,"source":"CELESTRAK","updated_at":"2026-05-25T13:38:03.210186Z"}}